Time,TemperatureF,DewpointF,PressureIn,WindDirection,WindDirectionDegrees,WindSpeedMPH,WindSpeedGustMPH,Humidity,HourlyPrecipIn,Conditions,Clouds,dailyrainin,SoftwareType,DateUTC
2013-01-25 00:11:00,52.0,52.0,-100.00,ESE,116,1.0,4.0,99,0.00,,,0.00,,2013-01-25 06:11:00,
2013-01-25 00:21:00,52.0,52.0,-100.00,ESE,116,1.0,4.0,99,0.00,,,0.00,,2013-01-25 06:21:00,
2013-01-25 00:32:00,52.0,52.0,-100.00,ESE,116,1.0,4.0,99,0.00,,,0.00,,2013-01-25 06:32:00,
2013-01-25 00:42:00,52.0,52.0,-100.00,ESE,116,1.0,4.0,99,0.00,,,0.00,,2013-01-25 06:42:00,
2013-01-25 01:11:00,52.0,52.0,-100.00,SE,137,1.0,3.0,99,0.00,,,0.00,,2013-01-25 07:11:00,
2013-01-25 01:21:00,52.0,52.0,-100.00,SE,137,1.0,3.0,99,0.00,,,0.00,,2013-01-25 07:21:00,
2013-01-25 01:32:00,52.0,52.0,-100.00,SE,137,1.0,3.0,99,0.00,,,0.00,,2013-01-25 07:32:00,
2013-01-25 01:42:00,52.0,52.0,-100.00,SE,137,1.0,3.0,99,0.00,,,0.00,,2013-01-25 07:42:00,
2013-01-25 02:11:00,51.0,51.0,-100.00,SE,146,1.0,2.0,99,0.00,,,0.00,,2013-01-25 08:11:00,
2013-01-25 02:21:00,51.0,51.0,-100.00,SE,146,1.0,2.0,99,0.00,,,0.00,,2013-01-25 08:21:00,
2013-01-25 02:32:00,51.0,51.0,-100.00,SE,146,1.0,2.0,99,0.00,,,0.00,,2013-01-25 08:32:00,
2013-01-25 02:41:00,51.0,51.0,-100.00,SE,146,1.0,2.0,99,0.00,,,0.00,,2013-01-25 08:41:00,
2013-01-25 03:11:00,50.0,50.0,-100.00,East,101,0.0,2.0,99,0.00,,,0.00,,2013-01-25 09:11:00,
2013-01-25 03:21:00,50.0,50.0,-100.00,East,101,0.0,2.0,99,0.00,,,0.00,,2013-01-25 09:21:00,
2013-01-25 03:31:00,50.0,50.0,-100.00,East,101,0.0,2.0,99,0.00,,,0.00,,2013-01-25 09:31:00,
2013-01-25 03:42:00,50.0,50.0,-100.00,East,101,0.0,2.0,99,0.00,,,0.00,,2013-01-25 09:42:00,
2013-01-25 04:12:00,47.0,47.0,-100.00,NNW,327,0.0,0.0,99,0.00,,,0.00,,2013-01-25 10:12:00,
2013-01-25 04:21:00,47.0,47.0,-100.00,NNW,327,0.0,0.0,99,0.00,,,0.00,,2013-01-25 10:21:00,
2013-01-25 04:32:00,47.0,47.0,-100.00,NNW,327,0.0,0.0,99,0.00,,,0.00,,2013-01-25 10:32:00,
2013-01-25 04:42:00,47.0,47.0,-100.00,NNW,327,0.0,0.0,99,0.00,,,0.00,,2013-01-25 10:42:00,
2013-01-25 05:11:00,45.0,45.0,-100.00,NE,43,0.0,1.0,99,0.00,,,0.00,,2013-01-25 11:11:00,
2013-01-25 05:22:00,45.0,45.0,-100.00,NE,43,0.0,1.0,99,0.00,,,0.00,,2013-01-25 11:22:00,
2013-01-25 05:32:00,45.0,45.0,-100.00,NE,43,0.0,1.0,99,0.00,,,0.00,,2013-01-25 11:32:00,
2013-01-25 05:42:00,45.0,45.0,-100.00,NE,43,0.0,1.0,99,0.00,,,0.00,,2013-01-25 11:42:00,
2013-01-25 06:12:00,44.0,44.0,-100.00,ENE,58,0.0,0.0,99,0.00,,,0.00,,2013-01-25 12:12:00,
2013-01-25 06:22:00,44.0,44.0,-100.00,ENE,58,0.0,0.0,99,0.00,,,0.00,,2013-01-25 12:22:00,
2013-01-25 06:32:00,44.0,44.0,-100.00,ENE,58,0.0,0.0,99,0.00,,,0.00,,2013-01-25 12:32:00,
2013-01-25 06:42:00,44.0,44.0,-100.00,ENE,58,0.0,0.0,99,0.00,,,0.00,,2013-01-25 12:42:00,
2013-01-25 07:12:00,43.0,43.0,-100.00,ENE,64,0.0,0.0,99,0.00,,,0.00,,2013-01-25 13:12:00,
2013-01-25 07:22:00,43.0,43.0,-100.00,ENE,64,0.0,0.0,99,0.00,,,0.00,,2013-01-25 13:22:00,
2013-01-25 07:32:00,43.0,43.0,-100.00,ENE,64,0.0,0.0,99,0.00,,,0.00,,2013-01-25 13:32:00,
2013-01-25 07:42:00,43.0,43.0,-100.00,ENE,64,0.0,0.0,99,0.00,,,0.00,,2013-01-25 13:42:00,
2013-01-25 08:12:00,46.0,46.0,-100.00,ENE,70,0.0,0.0,99,0.00,,,0.00,,2013-01-25 14:12:00,
2013-01-25 08:23:00,46.0,46.0,-100.00,ENE,70,0.0,0.0,99,0.00,,,0.00,,2013-01-25 14:23:00,
2013-01-25 08:32:00,46.0,46.0,-100.00,ENE,70,0.0,0.0,99,0.00,,,0.00,,2013-01-25 14:32:00,
2013-01-25 08:42:00,46.0,46.0,-100.00,ENE,70,0.0,0.0,99,0.00,,,0.00,,2013-01-25 14:42:00,
2013-01-25 09:12:00,59.0,59.0,-100.00,East,97,1.0,4.0,99,0.00,,,0.00,,2013-01-25 15:12:00,
2013-01-25 09:22:00,59.0,59.0,-100.00,East,97,1.0,4.0,99,0.00,,,0.00,,2013-01-25 15:22:00,
2013-01-25 09:32:00,59.0,59.0,-100.00,East,97,1.0,4.0,99,0.00,,,0.00,,2013-01-25 15:32:00,
2013-01-25 09:42:00,59.0,59.0,-100.00,East,97,1.0,4.0,99,0.00,,,0.00,,2013-01-25 15:42:00,
2013-01-25 10:12:00,69.0,59.0,-100.00,South,183,4.0,9.0,70,0.00,,,0.00,,2013-01-25 16:12:00,
2013-01-25 10:22:00,69.0,59.0,-100.00,South,183,4.0,9.0,70,0.00,,,0.00,,2013-01-25 16:22:00,
2013-01-25 10:32:00,69.0,59.0,-100.00,South,183,4.0,9.0,70,0.00,,,0.00,,2013-01-25 16:32:00,
2013-01-25 10:43:00,69.0,59.0,-100.00,South,183,4.0,9.0,70,0.00,,,0.00,,2013-01-25 16:43:00,
2013-01-25 11:12:00,71.0,55.0,-100.00,South,182,7.0,14.0,58,0.00,,,0.00,,2013-01-25 17:12:00,
2013-01-25 11:22:00,71.0,55.0,-100.00,South,182,7.0,14.0,58,0.00,,,0.00,,2013-01-25 17:22:00,
2013-01-25 11:32:00,71.0,55.0,-100.00,South,182,7.0,14.0,58,0.00,,,0.00,,2013-01-25 17:32:00,
2013-01-25 11:43:00,71.0,55.0,-100.00,South,182,7.0,14.0,58,0.00,,,0.00,,2013-01-25 17:43:00,
2013-01-25 12:03:00,73.0,56.0,-100.00,SSW,194,7.0,16.0,56,0.00,,,0.00,,2013-01-25 18:03:00,
2013-01-25 12:12:00,73.0,56.0,-100.00,SSW,194,7.0,16.0,56,0.00,,,0.00,,2013-01-25 18:12:00,
2013-01-25 12:23:00,73.0,56.0,-100.00,SSW,194,7.0,16.0,56,0.00,,,0.00,,2013-01-25 18:23:00,
2013-01-25 12:33:00,73.0,56.0,-100.00,SSW,194,7.0,16.0,56,0.00,,,0.00,,2013-01-25 18:33:00,
2013-01-25 12:42:00,73.0,56.0,-100.00,SSW,194,7.0,16.0,56,0.00,,,0.00,,2013-01-25 18:42:00,
2013-01-25 13:03:00,69.0,52.0,-100.00,SW,214,9.0,16.0,54,0.00,,,0.00,,2013-01-25 19:03:00,
2013-01-25 13:12:00,69.0,52.0,-100.00,SW,214,9.0,16.0,54,0.00,,,0.00,,2013-01-25 19:12:00,
2013-01-25 13:22:00,69.0,52.0,-100.00,SW,214,9.0,16.0,54,0.00,,,0.00,,2013-01-25 19:22:00,
2013-01-25 13:32:00,69.0,52.0,-100.00,SW,214,9.0,16.0,54,0.00,,,0.00,,2013-01-25 19:32:00,
2013-01-25 13:42:00,69.0,52.0,-100.00,SW,214,9.0,16.0,54,0.00,,,0.00,,2013-01-25 19:42:00,
2013-01-25 14:12:00,70.0,54.0,-100.00,SSW,212,9.0,18.0,57,0.00,,,0.00,,2013-01-25 20:12:00,
2013-01-25 14:22:00,70.0,54.0,-100.00,SSW,212,9.0,18.0,57,0.00,,,0.00,,2013-01-25 20:22:00,
2013-01-25 14:32:00,70.0,54.0,-100.00,SSW,212,9.0,18.0,57,0.00,,,0.00,,2013-01-25 20:32:00,
2013-01-25 14:42:00,70.0,54.0,-100.00,SSW,212,9.0,18.0,57,0.00,,,0.00,,2013-01-25 20:42:00,
2013-01-25 15:12:00,71.0,55.0,-100.00,South,191,6.0,15.0,58,0.00,,,0.00,,2013-01-25 21:12:00,
2013-01-25 15:23:00,71.0,55.0,-100.00,South,191,6.0,15.0,58,0.00,,,0.00,,2013-01-25 21:23:00,
2013-01-25 15:33:00,71.0,55.0,-100.00,South,191,6.0,15.0,58,0.00,,,0.00,,2013-01-25 21:33:00,
2013-01-25 15:42:00,71.0,55.0,-100.00,South,191,6.0,15.0,58,0.00,,,0.00,,2013-01-25 21:42:00,
2013-01-25 16:12:00,68.0,54.0,-100.00,SSW,194,6.0,15.0,61,0.00,,,0.00,,2013-01-25 22:12:00,
2013-01-25 16:22:00,68.0,54.0,-100.00,SSW,194,6.0,15.0,61,0.00,,,0.00,,2013-01-25 22:22:00,
2013-01-25 16:33:00,68.0,54.0,-100.00,SSW,194,6.0,15.0,61,0.00,,,0.00,,2013-01-25 22:33:00,
2013-01-25 16:42:00,68.0,54.0,-100.00,SSW,194,6.0,15.0,61,0.00,,,0.00,,2013-01-25 22:42:00,
2013-01-25 17:12:00,68.0,55.0,-100.00,South,184,5.0,11.0,64,0.00,,,0.00,,2013-01-25 23:12:00,
2013-01-25 17:22:00,68.0,55.0,-100.00,South,184,5.0,11.0,64,0.00,,,0.00,,2013-01-25 23:22:00,
2013-01-25 17:32:00,68.0,55.0,-100.00,South,184,5.0,11.0,64,0.00,,,0.00,,2013-01-25 23:32:00,
2013-01-25 17:42:00,68.0,55.0,-100.00,South,184,5.0,11.0,64,0.00,,,0.00,,2013-01-25 23:42:00,
2013-01-25 18:11:00,64.0,55.0,-100.00,South,183,3.0,9.0,72,0.00,,,0.00,,2013-01-26 00:11:00,
2013-01-25 18:22:00,64.0,55.0,-100.00,South,183,3.0,9.0,72,0.00,,,0.00,,2013-01-26 00:22:00,
2013-01-25 18:32:00,64.0,55.0,-100.00,South,183,3.0,9.0,72,0.00,,,0.00,,2013-01-26 00:32:00,
2013-01-25 18:42:00,64.0,55.0,-100.00,South,183,3.0,9.0,72,0.00,,,0.00,,2013-01-26 00:42:00,
2013-01-25 19:02:00,62.0,56.0,-100.00,SSE,156,2.0,6.0,80,0.00,,,0.00,,2013-01-26 01:02:00,
2013-01-25 19:11:00,62.0,56.0,-100.00,SSE,156,2.0,6.0,80,0.00,,,0.00,,2013-01-26 01:11:00,
2013-01-25 19:22:00,62.0,56.0,-100.00,SSE,156,2.0,6.0,80,0.00,,,0.00,,2013-01-26 01:22:00,
2013-01-25 19:32:00,62.0,56.0,-100.00,SSE,156,2.0,6.0,80,0.00,,,0.00,,2013-01-26 01:32:00,
2013-01-25 19:42:00,62.0,56.0,-100.00,SSE,156,2.0,6.0,80,0.00,,,0.00,,2013-01-26 01:42:00,
2013-01-25 20:11:00,59.0,55.0,-100.00,South,177,2.0,5.0,86,0.00,,,0.00,,2013-01-26 02:11:00,
2013-01-25 20:22:00,59.0,55.0,-100.00,South,177,2.0,5.0,86,0.00,,,0.00,,2013-01-26 02:22:00,
2013-01-25 20:32:00,59.0,55.0,-100.00,South,177,2.0,5.0,86,0.00,,,0.00,,2013-01-26 02:32:00,
2013-01-25 20:42:00,59.0,55.0,-100.00,South,177,2.0,5.0,86,0.00,,,0.00,,2013-01-26 02:42:00,
2013-01-25 21:11:00,55.0,53.0,-100.00,NE,48,1.0,3.0,92,0.00,,,0.00,,2013-01-26 03:11:00,
2013-01-25 21:22:00,55.0,53.0,-100.00,NE,48,1.0,3.0,92,0.00,,,0.00,,2013-01-26 03:22:00,
2013-01-25 21:31:00,55.0,53.0,-100.00,NE,48,1.0,3.0,92,0.00,,,0.00,,2013-01-26 03:31:00,
2013-01-25 21:42:00,55.0,53.0,-100.00,NE,48,1.0,3.0,92,0.00,,,0.00,,2013-01-26 03:42:00,
2013-01-25 22:12:00,51.0,50.0,-100.00,East,92,0.0,0.0,97,0.00,,,0.00,,2013-01-26 04:12:00,
2013-01-25 22:21:00,51.0,50.0,-100.00,East,92,0.0,0.0,97,0.00,,,0.00,,2013-01-26 04:21:00,
2013-01-25 22:32:00,51.0,50.0,-100.00,East,92,0.0,0.0,97,0.00,,,0.00,,2013-01-26 04:32:00,
2013-01-25 22:42:00,51.0,50.0,-100.00,East,92,0.0,0.0,97,0.00,,,0.00,,2013-01-26 04:42:00,
2013-01-25 23:12:00,49.0,48.0,-100.00,NE,52,0.0,0.0,98,0.00,,,0.00,,2013-01-26 05:12:00,
2013-01-25 23:23:00,49.0,48.0,-100.00,NE,52,0.0,0.0,98,0.00,,,0.00,,2013-01-26 05:23:00,
2013-01-25 23:33:00,49.0,48.0,-100.00,NE,52,0.0,0.0,98,0.00,,,0.00,,2013-01-26 05:33:00,
2013-01-25 23:41:00,49.0,48.0,-100.00,NE,52,0.0,0.0,98,0.00,,,0.00,,2013-01-26 05:41:00,